Starlink 11684

operational
NORAD ID: 64240 Int'l Des: 2025-119 Owner: SPXS Country: US Constellation: starlink
LEOCIRCULAR

Über Starlink 11684

Beschreibung wird geladen...

Live-Position

3D-Globus wird geladen...

Nächste Überflüge

Höhenverlauf

Altitude vs Time

uPlot chart will show altitude changes over time

Zweizeiliger Elementsatz

1 64240U 25119H 25353.25988819 .00172242 00000-0 13167-2 0 9990
2 64240 42.9989 334.0561 0001009 253.6677 106.4080 15.70866093 32590
Epoch: 19. Dez. 2025 • Age: 14 hours

Aktueller Status

Höhe 357.0 km
Geschwindigkeit 7.70 km/s
Subsatellitenpunkt -7.92°S, 65.39°W
Startdatum 3. Juni 2025
Alter 0.5 years
Typ internet

Technische Details

Klassifizierung Payload
Masse 960.00 kg
Trockenmasse 910.00 kg
Gesamtmasse 960.00 kg
Länge 0.30 m
Durchmesser 4.10 m
Spannweite 29.00 m
Form Box + pan
Hersteller SPXS
Bus-Typ Starlink V2MD
Phasenstatus In Orbit
Besitzer/Staat SPXS/US

Große Konstellationen

Loading constellations...